SCP
1 1 1 0 0 0 0 0 0 0 0 0 0 0 0 0 0 0 0 0 0 0 0 0 0 0 0 0 0 0 0 0 0 0 0 0 0 0
1 1 1 1 0 0 0 0 0 0 0 0 0 0 0 0 0 0 0 0 0 0 0 0 0 0 0 0 0 0 0 0 0 0 0 0 0 0
1 1 1 1 1 1 1 1 1 1 0 0 0 1 1 1 1 1 0 0 0 0 0 0 0 0 0 0 0 0 0 0 0 0 0 0 0 0
1 1 1 1 1 1 1 1 1 1 1 1 1 1 1 1 1 1 0 0 0 0 0 0 0 0 0 0 0 0 0 0 0 0 0 0 0 0
1 1 1 1 1 1 1 1 1 1 1 1 1 1 1 1 1 1 1 0 0 0 0 0 0 0 0 0 0 0 0 0 0 0 0 0 0 0
1 1 1 1 1 1 1 1 1 1 1 1 1 1 1 1 1 1 1 0 0 0 0 0 0 0 0 0 0 0 0 0 0 0 0 0 0 0
1 1 1 1 1 1 1 1 1 1 1 1 1 1 1 1 1 1 1 1 0 0 0 0 0 0 0 0 0 0 0 0 0 0 0 0 0 0
1 1 1 1 1 1 1 1 1 1 1 1 1 1 1 1 1 1 1 1 0 0 0 0 0 0 0 0 0 0 0 0 0 0 0 0 0 0
1 1 1 1 1 1 1 1 1 1 1 1 1 1 1 1 1 1 1 1 1 1 0 0 0 0 0 0 0 0 0 0 0 0 0 0 0 0
1 1 1 1 1 1 1 1 1 1 0 0 0 0 0 1 1 1 1 1 1 1 0 0 0 0 0 0 0 0 0 0 0 0 0 0 0 0
1 1 1 1 1 1 1 1 1 1 0 0 0 0 0 0 0 0 0 0 1 1 1 0 0 0 0 0 0 0 0 0 0 0 0 0 0 0
1 1 0 0 0 0 1 1 1 1 0 0 0 0 0 0 0 0 0 0 0 1 1 1 1 0 0 0 0 0 0 0 0 0 0 0 0 0
1 1 0 0 0 0 0 1 1 1 0 0 0 0 0 0 0 0 1 1 1 1 1 1 1 1 0 0 0 0 0 0 0 0 0 0 0 0
1 1 0 0 0 0 0 0 0 0 0 0 0 0 0 0 0 0 1 1 1 1 1 1 1 1 0 0 0 0 0 0 0 0 0 0 0 0
0 0 0 0 0 0 0 0 0 0 0 0 0 0 0 0 0 0 1 1 1 1 1 1 1 1 1 0 0 0 0 0 0 0 0 0 0 0
0 0 0 0 0 0 0 0 0 0 0 0 0 0 0 0 0 0 0 0 1 1 1 1 1 1 1 0 0 0 0 0 0 0 0 0 0 0
0 0 0 0 0 0 0 0 0 0 0 0 0 0 0 0 0 0 0 0 0 0 1 1 1 1 1 0 0 0 0 0 0 0 0 0 0 0
0 0 0 0 0 0 0 0 0 0 0 0 0 0 0 0 0 0 0 0 0 0 0 1 1 1 0 0 0 0 0 0 0 0 0 0 0 0
0 0 0 0 0 0 0 0 0 0 0 0 0 0 0 0 0 0 0 0 0 0 0 0 0 0 0 0 0 0 0 0 0 0 0 0 0 0
0 0 0 0 0 0 0 0 0 0 0 0 0 0 0 0 0 0 0 0 0 0 0 0 0 0 0 0 0 0 0 0 0 0 0 0 0 0
0 0 0 0 0 0 0 0 0 0 0 0 0 0 0 0 0 0 0 0 0 0 0 0 0 0 0 0 0 0 0 0 0 0 0 0 0 0
0 0 0 0 0 0 0 0 0 0 0 0 0 0 0 0 0 0 0 0 0 0 0 0 0 0 0 0 0 0 0 0 0 0 0 0 0 0
0 0 0 0 0 0 0 0 0 0 0 0 0 0 0 0 0 0 0 0 0 0 0 0 0 0 0 0 0 0 0 0 0 0 0 0 0 0
Wind_Speed
5 5 4 3 3 3 2 2 3 3 2 2 1 1 1 2 5 3 3 6 7 7 7 7 7 6 6 5 5 4 4 4 4 4 4 5 5 5
4 4 4 4 3 3 3 3 3 3 3 2 1 1 1 2 4 3 3 6 7 8 8 8 7 7 6 6 5 5 5 4 4 4 4 5 5 4
4 4 4 4 3 3 3 3 3 2 3 3 2 1 1 2 2 2 3 4 4 8 9 9 8 8 7 7 6 6 6 5 5 5 5 5 5 5
4 4 4 4 4 4 3 4 3 3 3 4 2 2 3 3 3 4 3 4 3 8 10 10 9 9 8 8 8 7 6 6 5 5 4 4 5 5
3 4 4 4 4 3 4 4 3 3 2 3 3 2 2 3 3 4 4 2 4 5 9 9 9 10 9 9 9 8 7 6 6 6 5 5 5 5
3 4 4 4 4 4 4 4 3 3 3 3 3 3 2 2 2 2 3 2 3 3 4 5 7 10 11 10 10 9 8 8 7 7 7 6 6 6
4 4 4 4 4 4 4 3 3 3 3 3 3 3 3 2 2 2 3 2 3 3 2 4 4 5 6 9 10 10 10 9 8 8 7 7 7 7
4 4 4 5 6 5 6 5 4 4 4 4 4 3 3 3 2 3 3 3 3 2 2 4 4 5 5 5 9 11 11 10 10 9 8 8 8 8
4 4 5 4 4 4 4 6 6 8 7 5 5 5 4 3 2 3 4 4 5 3 3 4 4 4 4 5 11 12 12 12 11 11 9 9 9 8
5 5 4 3 3 3 4 4 5 5 6 6 5 5 4 3 4 5 5 5 5 3 3 4 3 3 3 3 9 12 13 12 12 11 10 10 9 9
5 4 4 3 4 4 4 5 5 4 4 5 6 6 7 7 5 3 4 4 4 4 3 3 2 3 2 2 4 9 11 11 12 11 11 10 9 8
3 4 3 3 3 3 4 4 5 4 4 4 5 7 7 7 8 6 5 5 4 3 3 3 3 2 2 2 2 4 5 8 9 10 10 10 9 6
3 3 2 3 3 4 5 5 6 5 5 5 5 5 4 4 5 6 6 5 5 4 3 2 3 2 3 2 1 3 4 4 4 5 8 10 10 8
3 2 2 3 3 5 6 7 7 6 5 5 4 4 4 4 4 4 6 6 6 6 5 3 3 3 3 2 2 2 3 3 4 4 4 6 8 10
3 2 3 5 5 4 6 7 6 5 4 4 4 4 3 3 3 3 4 6 7 7 6 5 4 4 4 3 3 2 2 2 3 3 4 4 5 5
2 3 4 6 6 5 4 4 4 4 4 4 4 3 3 3 3 3 4 3 4 5 5 6 5 5 4 3 3 3 3 3 3 3 3 3 3 4
2 3 3 3 3 3 3 3 2 2 3 3 3 3 3 3 3 3 3 3 4 5 4 3 3 4 4 3 3 3 3 2 3 3 3 3 3 4
3 4 4 3 3 3 3 2 2 2 2 2 3 3 3 3 3 3 2 3 4 4 3 2 1 1 2 2 3 3 3 2 2 2 3 3 4 4
3 4 3 3 3 3 2 2 2 2 2 2 3 3 3 3 3 3 3 3 3 3 3 2 2 3 3 3 2 2 3 2 2 2 3 2 3 3
4 4 4 3 3 2 2 2 2 2 2 2 3 3 3 3 3 3 3 3 3 3 3 2 1 2 3 3 2 2 3 3 3 3 3 2 1 1
3 3 3 3 2 2 2 2 2 2 2 2 3 3 3 3 3 3 3 4 4 3 3 2 2 2 2 1 2 2 1 2 3 3 3 2 2 2
2 2 2 2 2 2 2 2 2 2 2 2 2 2 3 3 3 4 3 3 2 3 2 2 2 1 1 2 3 3 2 1 1 1 1 3 3 3
2 2 2 2 2 2 1 2 2 2 2 2 2 2 2 3 2 2 3 3 2 2 1 2 2 2 2 3 3 2 2 2 1 1 1 1 3 5
Wind_Direction
234 234 236 246 244 247 241 230 233 259 266 241 213 183 162 156 162 183 178 192 201 205 208 207 207 211 214 217 220 219 221 226 228 231 232 228 230 234
235 239 239 243 246 246 240 244 243 244 257 262 245 217 201 191 176 191 186 193 198 200 201 203 204 207 211 214 216 215 217 221 221 219 217 214 216 218
246 239 241 244 250 259 255 249 242 237 249 261 257 240 215 205 188 205 200 199 197 203 202 203 205 206 208 210 213 214 216 217 215 213 213 211 209 207
250 253 251 247 242 248 257 259 250 237 237 251 255 248 233 208 197 217 224 215 199 202 202 204 204 205 208 211 212 214 214 212 209 206 206 206 206 207
243 255 254 249 250 247 246 252 259 261 239 243 255 248 239 216 205 228 234 231 230 201 202 205 208 209 212 213 213 212 209 208 208 208 209 208 208 210
243 247 257 255 251 255 254 253 261 271 267 256 252 248 239 225 209 227 246 230 238 222 201 203 211 214 216 213 210 205 205 207 208 209 209 209 210 211
239 236 238 236 245 254 259 259 259 258 262 260 254 253 244 231 228 234 250 251 244 221 196 208 204 211 214 218 212 205 205 206 207 209 209 210 211 212
240 239 231 231 232 234 235 240 246 249 254 259 258 255 248 243 245 253 252 256 257 222 215 235 206 210 209 207 201 200 202 203 206 208 209 210 213 214
241 245 252 239 222 231 232 237 243 244 241 248 261 265 261 252 253 261 259 253 252 239 231 250 230 220 213 208 195 198 200 202 206 208 209 211 213 214
244 241 239 237 244 252 259 255 252 247 241 236 242 256 263 259 247 248 256 258 257 247 219 247 236 231 223 202 198 197 197 201 205 207 208 210 213 215
247 250 236 218 229 240 255 262 262 256 255 255 246 248 253 256 253 262 260 258 263 252 223 236 247 247 228 218 202 196 200 203 206 207 206 206 209 210
238 241 227 212 224 226 245 258 261 266 272 266 255 254 248 245 236 226 240 249 257 262 226 229 237 238 261 229 189 186 200 213 212 211 211 209 201 197
244 238 215 189 209 227 238 246 250 261 266 263 257 247 242 238 233 224 226 234 244 252 247 228 247 232 241 262 228 199 194 193 200 210 213 213 204 196
250 234 207 206 233 247 246 246 250 256 256 257 256 254 252 247 239 231 228 230 231 240 246 230 241 237 239 253 253 217 203 193 191 196 197 200 211 216
260 253 244 235 243 255 249 247 241 240 246 253 255 255 255 257 260 251 241 230 234 243 242 228 230 231 226 233 234 222 224 209 195 193 190 194 200 202
258 272 258 248 253 259 263 248 236 239 245 254 262 264 260 253 249 254 255 249 246 249 238 225 227 228 236 236 224 226 216 207 206 201 197 201 200 204
248 252 250 247 241 245 249 257 259 259 259 269 280 288 285 276 266 260 255 256 250 252 247 227 223 224 225 221 229 229 216 218 213 207 202 209 214 214
223 241 242 237 239 244 245 245 251 259 269 274 276 282 288 288 285 285 279 275 274 268 264 235 219 257 286 267 227 219 214 217 210 205 205 219 228 223
225 237 242 241 236 237 240 246 248 253 265 269 271 277 281 284 282 279 278 278 277 276 270 254 219 212 237 261 276 218 210 212 201 202 210 225 237 228
226 234 241 246 242 245 249 252 258 254 255 265 270 275 277 277 275 274 271 275 279 279 277 268 243 226 234 237 247 263 224 205 199 206 210 224 249 220
238 240 244 247 246 249 259 260 259 262 264 273 276 281 281 280 279 280 275 275 272 271 272 271 261 242 230 218 235 247 255 214 197 204 201 197 228 224
265 260 259 260 254 246 252 258 258 259 260 264 275 286 287 285 283 282 279 275 271 272 275 287 284 265 236 227 236 245 254 241 158 150 182 195 195 206
259 259 249 247 247 239 246 266 275 277 284 282 278 277 285 287 285 283 287 282 273 270 271 285 294 282 258 236 239 245 240 237 195 172 242 278 221 212